Preview of NWS' New Version of Forecast
This preview is not operational and should not be used for support decisions.

Regional Weather Roundup (RWR)

Issued by National Weather Service (NWS)

                            
000
ASUS45 KABQ 251210
RWRNM 
NEW MEXICO REGIONAL WEATHER ROUNDUP
NATIONAL WEATHER SERVICE ALBUQUERQUE NM
600 AM MDT SUN AUG 25 2019

NOTE: "FAIR" MEANS FEW OR NO CLOUDS BELOW 12,000 FEET AGL WITH NO
       SIGNIFICANT WEATHER OR OBSTRUCTIONS TO VISION.

      THIS PRODUCT IS RELEASED AS TWO VERSIONS.  ONE VERSION NEAR
      THE TOP OF THE HOUR CONTAINING PRELIMINARY DATA FROM ALBUQUERQUE
      AND OTHER STATIONS.  A FINAL VERSION WITH ADDITIONAL DATA IS 
      ISSUED ABOUT 10 MINUTES AFTER THE HOUR.
 
NMZ501-503-504-510>518-251300-
NORTHWEST PLATEAU/NORTHCENTRAL MOUNTAINS
  
CITY           SKY/WX    TMP DP  RH WIND       PRES   REMARKS
FARMINGTON     FAIR      58  30  34 E6        30.14R                  
6HR MIN TEMP:  53; 6HR MAX TEMP:  69;                                

LOS ALAMOS       N/A     65  27  23 CALM      30.24R                  
SANTA FE       FAIR      50  34  54 CALM      30.17R                  
6HR MIN TEMP:  50; 6HR MAX TEMP:  68;                                

TAOS           FAIR      48  34  58 NE3       30.26R                  
ANGEL FIRE     FAIR      32  29  87 SE3       30.34R                  

$$
NMZ402-403-502-505>509-251300-
WESTCENTRAL MOUNTAINS/SOUTHWEST MOUNTAINS
  
CITY           SKY/WX    TMP DP  RH WIND       PRES   REMARKS
GALLUP         FAIR      59  36  42 CALM      30.26R                  
6HR MIN TEMP:  53; 6HR MAX TEMP:  62;                                

GRANTS         FAIR      45  31  57 CALM      30.26S                  
SILVER CITY    FAIR      68  57  66 NW17      30.16R                  

$$
NMZ407-409-411-412-251300-
SOUTHERN DESERTS
  
CITY           SKY/WX    TMP DP  RH WIND       PRES   REMARKS
DEMING         FAIR      70  61  73 S8        30.10R                  
6HR MIN TEMP:  70; 6HR MAX TEMP:  78;                                

LAS CRUCES     FAIR      73  60  63 W7        30.08S                  
HOLLOMAN AFB   FAIR      75  59  56 S7        30.05R                  
ALAMOGORDO     FAIR      73  57  56 S9        30.04S                  
T OR C         FAIR      77  49  37 NW13      30.07S                  
6HR MIN TEMP:  77; 6HR MAX TEMP:  82;                                


$$
NMZ519>523-251300-
CENTRAL VALLEYS/CENTRAL HIGHLANDS
  
CITY           SKY/WX    TMP DP  RH WIND       PRES   REMARKS
ALBUQUERQUE    FAIR      66  32  28 SE5       30.12R                  
6HR MIN TEMP:  66; 6HR MAX TEMP:  77;                                

DOUBLE EAGLE   PTCLDY    59  32  36 S7        30.16R                  
MORIARTY ARPT  FAIR      49  36  59 SE5       30.18R                  
6HR MIN TEMP:  49; 6HR MAX TEMP:  60;                                

CLINES CORNERS FAIR      57  29  34 NW8       30.23R                  
6HR MIN TEMP:  57; 6HR MAX TEMP:  64;                                

BELEN          FAIR      64  33  31 CALM      30.11S                  
6HR MIN TEMP:  64; 6HR MAX TEMP:  80;                                

SOCORRO        FAIR      67  42  39 CALM      30.09R                  
6HR MIN TEMP:  67; 6HR MAX TEMP:  81;                                


$$
NMZ524>526-539-540-251300-
SOUTHCENTRAL MOUNTAINS
  
CITY           SKY/WX    TMP DP  RH WIND       PRES   REMARKS
RUIDOSO        FAIR      66  45  45 W10       30.23S                  

$$
NMZ527>531-251300-
NORTHEAST HIGHLANDS/NORTHEAST PLAINS
  
CITY           SKY/WX    TMP DP  RH WIND       PRES   REMARKS
LAS VEGAS      FAIR      57  33  40 N9        30.17R                  
6HR MIN TEMP:  56; 6HR MAX TEMP:  67;                                

RATON          FAIR      52  42  69 NE8       30.11R                  
6HR MIN TEMP:  50; 6HR MAX TEMP:  64;                                

CLAYTON        FAIR      64  52  64 NW10      29.98R                  
6HR MIN TEMP:  59; 6HR MAX TEMP:  69;                                


$$
NMZ532>537-251300-
EASTCENTRAL PLAINS
  
CITY           SKY/WX    TMP DP  RH WIND       PRES   REMARKS
SANTA ROSA     FAIR      68  40  35 SW6       30.00R                  
TUCUMCARI      FAIR      65  54  67 W10       29.92R                  
6HR MIN TEMP:  64; 6HR MAX TEMP:  78;                                

CANNON AFB     NOT AVBL                                               
CLOVIS AIRPORT FAIR      64  61  90 W9        29.95F                  

$$
NMZ028-029-538-251300-
SOUTHEAST PLAINS
  
CITY           SKY/WX    TMP DP  RH WIND       PRES   REMARKS
ROSWELL        FAIR      73  50  44 CALM      29.92R                  
6HR MIN TEMP:  73; 6HR MAX TEMP:  85;                                

ARTESIA        FAIR      75  54  46 CALM      29.94S                  
CARLSBAD       FAIR      72  58  61 SE5       29.91R                  
6HR MIN TEMP:  70; 6HR MAX TEMP:  85;                                

HOBBS          CLEAR     66  61  82 S6        29.95S                  


$$